Overview Statistics Trail Chart Weather Telemetry Raw packets
 

This is the latest recevied weather packets stored in our database for station/object WA5TET. If no packets are shown the sender has not sent any weather packets the latest 10 day(s).

<< 107 108 109 110 111 112 113 >>
Time Temp. Humidity Pressure Rain* Wind** Luminosity Snow
1787802595 30° C 55% 1012.9 hPa 0 mm - 0 W/m² -
1787802295 30.56° C 54% 1012.9 hPa 0 mm - 0 W/m² -
1787801991 30° C 55% 1012.7 hPa 0 mm - 0 W/m² -
1787801686 30.56° C 55% 1012.9 hPa 0 mm - 0 W/m² -
1787801385 30.56° C 54% 1012.8 hPa 0 mm - 0 W/m² -
1787801085 30.56° C 54% 1012.5 hPa 0 mm - 0 W/m² -
1787800784 30.56° C 54% 1012.6 hPa 0 mm - 0 W/m² -
1787800480 30.56° C 54% 1012.5 hPa 0 mm - 0 W/m² -
1787800176 30.56° C 53% 1012.4 hPa 0 mm - 0 W/m² -
1787799874 30.56° C 53% 1012.5 hPa 0 mm - 0 W/m² -
1787799571 30.56° C 53% 1012.5 hPa 0 mm - 0 W/m² -
1787799266 30.56° C 53% 1012.5 hPa 0 mm - 0 W/m² -
1787798965 30.56° C 53% 1012.3 hPa 0 mm - 0 W/m² -
1787798660 31.11° C 52% 1012.3 hPa 0 mm - 0 W/m² -
1787798355 31.11° C 51% 1012.3 hPa 0 mm - 0 W/m² -
1787798055 31.11° C 51% 1012.3 hPa 0 mm - 0 W/m² -
1787797749 31.11° C 50% 1012 hPa 0 mm - 0 W/m² -
1787797443 31.67° C 49% 1011.8 hPa 0 mm - 0 W/m² -
1787797139 31.67° C 48% 1011.7 hPa 0 mm - 0 W/m² -
1787796834 31.67° C 48% 1011.5 hPa 0 mm - 0 W/m² -
1787796533 31.67° C 48% 1011.5 hPa 0 mm - 0 W/m² -
1787796230 31.67° C 47% 1011.5 hPa 0 mm - 0 W/m² -
1787795927 31.67° C 46% 1011.1 hPa 0 mm - 0 W/m² -
1787795623 32.22° C 45% 1011.3 hPa 0 mm - 0 W/m² -
1787795323 32.22° C 45% 1011.3 hPa 0 mm - 0 W/m² -

* Rain latest hour (hover to see other rain measurements)
** Current wind speed in m/s (hover to see current wind gust speed)